Find Starlink 31389

NORAD ID: 59013 Int'l Des: 2024-036 Owner: SPXS Country: US Constellation: starlink operational
LEOCIRCULAR

当前视图

正在加载3D地球...

About Starlink 31389

Starlink 31389 (NORAD 59013) is a starlink constellation satellite (v2 mini) launched Feb 23, 2024 by SPXS of US. It operates in LEO, CIRCULAR orbit with a mass of 730.00 kg.

关于 Starlink 31389

正在加载描述...

即将过境

Passes for default location (London). Set your location on the main map for personalized predictions.

高度历史

Loading altitude history...

两行轨道根数

1 59013U 24036R 26171.13864613 -.00000856 00000-0 -16780-4 0 9999
2 59013 53.1618 322.6117 0001510 76.7458 283.3711 15.30185462131016
Epoch: Jun 20, 2026 • Age: 28 hours

当前状态

高度 494.0 km
速度 7.62 km/s
星下点 -51.47°S, 129.71°W
发射日期 Feb 23, 2024
运行时间 2.3 years
类型 internet

技术详情

分类 Payload
质量 730.00 kg
干质量 700.00 kg
总质量 730.00 kg
长度 0.30 m
直径 4.10 m
跨度 29.00 m
形状 Box + pan
制造商 SPXS
平台类型 Starlink V2M
阶段状态 In Orbit
所有者/国家 SPXS/US

Most Searched